Location: Schommer Observatory
(40.5200°N, 74.4500°W)
Time: 18:28:46
(UTC-04:00)

OTV 5 (USA 277) - Pass Details

Date: 07 October 2017
Orbit: 404 x 417 km, 43.0° (Epoch: 07 September)

Event Time Altitude Azimuth Distance (km) Brightness Sun altitude
Rises 20:38:51 0° 230° (SW) 2,344 ? -25.2°
Reaches altitude 10° 20:41:03 10° 221° (SW) 1,483 ? -25.6°
Enters shadow 20:41:10 11° 221° (SW) 1,434 ? -25.6°
